{"data":{"norad_id":50483,"epoch":"2026-05-25T01:14:42.901152Z","epoch_age_seconds":64569,"freshness":"FRESH","line1":"1 50483U 21132Q   26145.05188543  .00000015  00000+0  54998-5 0  9996","line2":"2 50483  87.9171 340.0590 0001949  90.9264 269.2091 13.18686850218544","mean_motion":13.1868685,"eccentricity":0.0001949,"inclination_deg":87.9171,"raan_deg":340.059,"arg_perigee_deg":90.9264,"mean_anomaly_deg":269.2091,"bstar":5.4998e-6,"rev_number":21854,"period_min":109.19954195342,"perigee_km":1188.2648955911,"apogee_km":1191.2148539969,"semimajor_km":7567.876874794,"source":"CELESTRAK","updated_at":"2026-05-25T13:38:22.530960Z"}}